Knoxville, TN

6:39 PM EST on November 18, 2019 (GMT -0500)
McGhee Tyson

Weather History for KTYS - July, 2019

Change the Weather History Date:

Wednesday, July 24, 2019

  Actual Average Record
Temperature  
Mean Temperature 70 °F 78 °F  
Max Temperature 82 °F 88 °F 101 °F (1934)
Min Temperature 57 °F 69 °F 57 °F (1947)
Degree Days  
Heating Degree Days 0 0  
Month to date heating degree days 0  
Since 1 June heating degree days 4  
Since 1 July heating degree days 0  
Cooling Degree Days 4 14  
Month to date cooling degree days 326  
Year to date cooling degree days 793  
Since 1 June cooling degree days 631  
Growing Degree Days 20 (Base 50)    
Moisture  
Dew Point 56 °F    
Average Humidity 63    
Maximum Humidity 93    
Minimum Humidity 30    
Precipitation  
Precipitation 0.00 in 0.17 in 2.10 in (1890)
Month to date precipitation 4.04  
Year to date precipitation 29.29  
Snow  
Snow 0.00 in 0.00 in - ()
Month to date snowfall 0.0  
Since 1 June snowfall 0.0  
Since 1 July snowfall 0.0  
Snow Depth -    
Sea Level Pressure  
Sea Level Pressure 30.04 in    
Wind  
Wind Speed 4 mph (NNE)    
Max Wind Speed 9 mph    
Max Gust Speed -    
Visibility 10 miles    
Events      
T = Trace of Precipitation, MM = Missing Value Source: NWS Daily Summary

Daily Weather History Graph

Daily Weather History Graph

Search for Another Location

Airport or City:

Astronomy

Jul. 24, 2019 Rise Set
Actual Time 6:37 AM EDT 8:47 PM EDT
Civil Twilight 6:08 AM EDT 9:15 PM EDT
Nautical Twilight 5:33 AM EDT 9:50 PM EDT
Astronomical Twilight 4:55 AM EDT 10:28 PM EDT
Moon 12:46 AM EDT (7/24) 1:34 PM EDT (7/24)
Length of Visible Light 15h 07m
Length of Day
14h 09m
Waning Gibbous, 54% of the Moon is Illuminated
Jul 24
Waning Gibbous
Jul 24
Last Quarter
Jul 31
New
Aug 7
First Quarter
Aug 15
Full

Hourly Weather History & Observations

Time (EDT) Temp. Heat Index Dew Point Humidity Pressure Visibility Wind Dir Wind Speed Gust Speed Precip Events Conditions
12:53 AM 64.0 °F - 57.0 °F 78% 30.02 in 10.0 mi ESE 3.5 mph - N/A   Partly Cloudy
1:53 AM 64.0 °F - 55.9 °F 75% 30.01 in 10.0 mi ENE 3.5 mph - N/A   Partly Cloudy
2:53 AM 63.0 °F - 55.9 °F 78% 30.01 in 10.0 mi Calm Calm - N/A   Scattered Clouds
3:53 AM 62.1 °F - 55.9 °F 80% 30.00 in 10.0 mi North 5.8 mph - N/A   Partly Cloudy
4:53 AM 57.9 °F - 55.9 °F 93% 30.01 in 10.0 mi East 3.5 mph - N/A   Clear
5:53 AM 59.0 °F - 55.9 °F 90% 30.01 in 10.0 mi NE 3.5 mph - N/A   Clear
6:53 AM 57.9 °F - 55.9 °F 93% 30.03 in 10.0 mi Calm Calm - N/A   Clear
7:53 AM 62.1 °F - 57.9 °F 86% 30.04 in 10.0 mi Calm Calm - N/A   Partly Cloudy
8:53 AM 66.0 °F - 59.0 °F 78% 30.07 in 10.0 mi North 4.6 mph - N/A   Partly Cloudy
9:53 AM 71.1 °F - 60.1 °F 68% 30.08 in 10.0 mi NE 4.6 mph - N/A   Clear
10:53 AM 73.9 °F - 59.0 °F 59% 30.08 in 10.0 mi NE 8.1 mph - N/A   Partly Cloudy
11:53 AM 75.0 °F - 54.0 °F 48% 30.07 in 10.0 mi East 4.6 mph - N/A   Scattered Clouds
12:53 PM 75.9 °F - 54.0 °F 46% 30.06 in 10.0 mi NE 8.1 mph - N/A   Scattered Clouds
1:53 PM 79.0 °F - 55.0 °F 44% 30.05 in 10.0 mi NE 5.8 mph - N/A   Scattered Clouds
2:53 PM 79.0 °F - 57.0 °F 47% 30.03 in 10.0 mi North 5.8 mph - N/A   Scattered Clouds
3:53 PM 79.0 °F - 55.0 °F 44% 30.02 in 10.0 mi NE 8.1 mph - N/A   Scattered Clouds
4:53 PM 79.0 °F - 53.1 °F 40% 30.01 in 10.0 mi NNE 8.1 mph - N/A   Partly Cloudy
5:53 PM 81.0 °F 80.5 °F 54.0 °F 39% 30.01 in 10.0 mi North 9.2 mph - N/A   Partly Cloudy
6:53 PM 80.1 °F 79.9 °F 53.1 °F 39% 30.01 in 10.0 mi NNW 5.8 mph - N/A   Scattered Clouds
7:53 PM 75.0 °F - 57.0 °F 53% 30.04 in 10.0 mi North 4.6 mph - N/A   Scattered Clouds
8:53 PM 73.9 °F - 55.9 °F 53% 30.05 in 10.0 mi North 8.1 mph - N/A   Scattered Clouds
9:53 PM 71.1 °F - 55.9 °F 59% 30.06 in 10.0 mi Calm Calm - N/A   Partly Cloudy
10:53 PM 68.0 °F - 60.1 °F 76% 30.06 in 10.0 mi NNE 4.6 mph - N/A   Partly Cloudy
11:53 PM 64.9 °F - 61.0 °F 87% 30.07 in 10.0 mi Calm Calm - N/A   Clear